Blair, NE

8:56 PM CDT on May 22, 2017 (GMT -0500)
Blair Municipal

Weather History for KBTA - October, 2013

Change the Weather History Date:

Friday, October 4, 2013

  Actual Average (KOMA) Record (KOMA)
Temperature  
Mean Temperature 66 °F -  
Max Temperature 80 °F 70 °F 92 °F (2005)
Min Temperature 51 °F 44 °F 28 °F (1935)
Growing Degree Days 16 (Base 50)    
Moisture  
Dew Point 60 °F    
Average Humidity 78    
Maximum Humidity 94    
Minimum Humidity 50    
Precipitation  
Precipitation 0.46 in - - ()
Sea Level Pressure  
Sea Level Pressure 29.76 in    
Wind  
Wind Speed 14 mph (ESE)    
Max Wind Speed 24 mph    
Max Gust Speed 31 mph    
Visibility 10 miles    
Events Rain , Thunderstorm    
Averages and records for this station are not official NWS values.
T = Trace of Precipitation, MM = Missing Value Source: NWS Daily Summary

Daily Weather History Graph

Daily Weather History Graph

Search for Another Location

Airport or City:

Trip Planner

Search our weather history database for the weather conditions in past years. The results will help you decide how hot, cold, wet, or windy it might be!

Date:

Astronomy

Oct. 04, 2013 Rise Set
Actual Time 7:24 AM CDT 7:00 PM CDT
Civil Twilight 6:57 AM CDT 7:28 PM CDT
Nautical Twilight 6:24 AM CDT 8:00 PM CDT
Astronomical Twilight 5:52 AM CDT 8:32 PM CDT
Moon 7:01 AM CDT (10/4) 6:43 PM CDT (10/4)
Length of Visible Light 12h 31m
Length of Day
11h 36m
Waning Crescent, 0% of the Moon is Illuminated
Oct 4
Waning Crescent
Oct 4
New
Oct 11
First Quarter
Oct 18
Full
Oct 26
Last Quarter

Hourly Weather History & Observations

Time (CDT) Temp. Dew Point Humidity Pressure Visibility Wind Dir Wind Speed Gust Speed Precip Events Conditions
12:15 AM 66.0 °F 59.7 °F 80% 29.75 in 10.0 mi SE 19.6 mph 29.9 mph 0.01 in Rain , Thunderstorm Light Thunderstorms and Rain
12:35 AM 65.3 °F 58.6 °F 79% 29.75 in 10.0 mi East 10.4 mph - 0.01 in Rain , Thunderstorm Rain
12:55 AM 63.5 °F 59.2 °F 86% 29.74 in 10.0 mi ENE 11.5 mph - 0.01 in   Mostly Cloudy
1:15 AM 63.1 °F 59.2 °F 87% 29.76 in 10.0 mi NW 9.2 mph - N/A   Scattered Clouds
1:35 AM 64.0 °F 61.7 °F 92% 29.78 in 10.0 mi North 11.5 mph - N/A Thunderstorm Mostly Cloudy
1:55 AM 64.4 °F 62.1 °F 92% 29.82 in 10.0 mi NNW 9.2 mph - N/A Thunderstorm Thunderstorm
2:15 AM 64.6 °F 62.4 °F 93% 29.82 in 10.0 mi North 13.8 mph 17.3 mph N/A Rain , Thunderstorm Light Thunderstorms and Rain
2:35 AM 64.6 °F 62.1 °F 92% 29.83 in 7.0 mi NE 8.1 mph - 0.05 in Rain , Thunderstorm Thunderstorms and Rain
2:55 AM 64.4 °F 62.1 °F 92% 29.80 in 7.0 mi ENE 11.5 mph 17.3 mph 0.11 in Rain , Thunderstorm Light Thunderstorms and Rain
3:15 AM 64.2 °F 61.7 °F 91% 29.78 in 7.0 mi ENE 16.1 mph 21.9 mph 0.04 in Rain , Thunderstorm Heavy Thunderstorms and Rain
3:35 AM 63.9 °F 61.9 °F 93% 29.83 in 10.0 mi North 9.2 mph - 0.06 in Rain , Thunderstorm Light Thunderstorms and Rain
3:55 AM 63.9 °F 61.9 °F 93% 29.80 in 10.0 mi ENE 13.8 mph 21.9 mph 0.09 in Rain , Thunderstorm Light Thunderstorms and Rain
4:15 AM 63.7 °F 61.5 °F 93% 29.75 in 10.0 mi NNE 15.0 mph 20.7 mph 0.02 in Rain Light Rain
4:35 AM 63.7 °F 60.8 °F 90% 29.78 in 4.0 mi East 15.0 mph 20.7 mph 0.13 in Rain , Thunderstorm Heavy Thunderstorms and Rain
4:55 AM 63.5 °F 60.4 °F 90% 29.82 in 10.0 mi NNE 5.8 mph - 0.18 in Rain , Thunderstorm Rain
5:15 AM 63.0 °F 60.3 °F 91% 29.81 in 10.0 mi ENE 10.4 mph - 0.03 in Rain Light Rain
5:35 AM 62.8 °F 60.8 °F 93% 29.80 in 10.0 mi East 11.5 mph - 0.04 in Rain Light Rain
5:55 AM 62.6 °F 60.8 °F 94% 29.80 in 10.0 mi East 9.2 mph - 0.04 in Rain Light Rain
6:15 AM 62.6 °F 60.4 °F 93% 29.80 in 10.0 mi East 8.1 mph - N/A Rain Light Rain
6:35 AM 62.6 °F 60.8 °F 94% 29.81 in 10.0 mi East 9.2 mph - N/A   Overcast
6:55 AM 62.6 °F 60.1 °F 91% 29.80 in 10.0 mi East 11.5 mph - N/A   Overcast
7:35 AM 62.1 °F 59.2 °F 90% 29.80 in 10.0 mi ESE 13.8 mph - N/A   Overcast
7:55 AM 62.1 °F 59.2 °F 90% 29.80 in 10.0 mi East 10.4 mph 19.6 mph 0.02 in   Overcast
8:15 AM 62.6 °F 59.2 °F 89% 29.79 in 10.0 mi East 16.1 mph 23.0 mph N/A Rain Light Rain
8:35 AM 63.0 °F 59.9 °F 90% 29.79 in 10.0 mi East 15.0 mph 21.9 mph N/A   Overcast
8:55 AM 63.1 °F 59.4 °F 87% 29.78 in 10.0 mi East 15.0 mph 25.3 mph N/A   Overcast
9:15 AM 63.7 °F 59.5 °F 86% 29.78 in 10.0 mi East 19.6 mph - N/A   Overcast
9:35 AM 64.0 °F 59.2 °F 84% 29.77 in 10.0 mi East 16.1 mph 21.9 mph N/A   Overcast
9:55 AM 63.9 °F 59.9 °F 87% 29.78 in 10.0 mi East 10.4 mph 19.6 mph 0.01 in Rain Light Rain
10:15 AM 64.4 °F 60.4 °F 87% 29.77 in 10.0 mi East 11.5 mph - N/A   Light Drizzle
10:35 AM 64.6 °F 61.0 °F 88% 29.76 in 10.0 mi East 10.4 mph - N/A   Light Drizzle
10:55 AM 65.8 °F 61.9 °F 87% 29.76 in 10.0 mi ESE 16.1 mph 21.9 mph N/A   Overcast
11:15 AM 66.9 °F 62.6 °F 86% 29.77 in 10.0 mi ESE 13.8 mph 18.4 mph N/A   Overcast
11:35 AM 67.1 °F 62.1 °F 84% 29.76 in 10.0 mi ESE 11.5 mph 20.7 mph N/A   Overcast
11:55 AM 68.2 °F 62.6 °F 82% 29.76 in 10.0 mi ESE 13.8 mph 21.9 mph N/A   Overcast
12:15 PM 69.4 °F 63.5 °F 81% 29.75 in 10.0 mi ESE 16.1 mph - N/A   Overcast
12:35 PM 71.4 °F 64.0 °F 77% 29.75 in 10.0 mi ESE 17.3 mph 25.3 mph N/A   Mostly Cloudy
12:55 PM 72.0 °F 64.8 °F 78% 29.74 in 10.0 mi ESE 16.1 mph 23.0 mph N/A   Overcast
1:15 PM 72.3 °F 65.5 °F 79% 29.73 in 10.0 mi SE 16.1 mph 21.9 mph N/A   Overcast
1:35 PM 73.2 °F 66.0 °F 78% 29.71 in 10.0 mi SE 13.8 mph 19.6 mph N/A   Overcast
1:55 PM 75.2 °F 66.7 °F 75% 29.70 in 10.0 mi ESE 18.4 mph 24.2 mph N/A   Overcast
2:15 PM 74.7 °F 66.7 °F 76% 29.70 in 10.0 mi SE 15.0 mph 20.7 mph N/A   Overcast
2:35 PM 74.3 °F 67.1 °F 78% 29.69 in 10.0 mi SE 10.4 mph 18.4 mph N/A   Overcast
2:55 PM 75.4 °F 67.5 °F 76% 29.68 in 10.0 mi ESE 15.0 mph 19.6 mph N/A   Mostly Cloudy
3:15 PM 77.4 °F 68.0 °F 73% 29.68 in 10.0 mi SE 15.0 mph 23.0 mph N/A   Scattered Clouds
3:35 PM 78.1 °F 68.7 °F 73% 29.67 in 10.0 mi SE 13.8 mph 20.7 mph N/A   Scattered Clouds
3:55 PM 78.8 °F 69.1 °F 72% 29.67 in 10.0 mi SE 12.7 mph 18.4 mph N/A   Mostly Cloudy
4:15 PM 79.7 °F 69.3 °F 70% 29.66 in 10.0 mi SE 15.0 mph 21.9 mph N/A   Scattered Clouds
4:35 PM 79.0 °F 69.1 °F 72% 29.66 in 10.0 mi SE 10.4 mph 17.3 mph N/A   Scattered Clouds
4:55 PM 79.0 °F 69.4 °F 72% 29.65 in 10.0 mi ESE 11.5 mph 16.1 mph N/A   Scattered Clouds
5:15 PM 79.9 °F 69.4 °F 70% 29.64 in 10.0 mi SE 12.7 mph 20.7 mph N/A   Scattered Clouds
5:35 PM 79.7 °F 69.4 °F 71% 29.64 in 10.0 mi SE 11.5 mph 17.3 mph N/A   Scattered Clouds
5:55 PM 79.7 °F 68.9 °F 69% 29.63 in 10.0 mi SE 11.5 mph 17.3 mph N/A   Scattered Clouds
6:15 PM 79.2 °F 68.5 °F 70% 29.63 in 10.0 mi SE 11.5 mph 17.3 mph N/A   Mostly Cloudy
6:35 PM 79.7 °F 68.9 °F 69% 29.65 in 10.0 mi South 15.0 mph 19.6 mph N/A   Mostly Cloudy
6:55 PM 79.3 °F 59.4 °F 50% 29.67 in 10.0 mi SW 24.2 mph 28.8 mph N/A   Mostly Cloudy
7:15 PM 75.6 °F 56.7 °F 52% 29.69 in 10.0 mi SW 18.4 mph 28.8 mph N/A   Scattered Clouds
7:35 PM 74.1 °F 57.0 °F 55% 29.71 in 10.0 mi SSW 15.0 mph 20.7 mph N/A   Scattered Clouds
7:55 PM 72.1 °F 56.8 °F 58% 29.73 in 10.0 mi SW 18.4 mph 27.6 mph N/A   Scattered Clouds
8:15 PM 69.8 °F 54.3 °F 58% 29.74 in 10.0 mi WSW 20.7 mph 28.8 mph N/A   Clear
8:35 PM 67.8 °F 53.8 °F 61% 29.75 in 10.0 mi WSW 17.3 mph 24.2 mph N/A   Clear
8:55 PM 65.8 °F 49.5 °F 55% 29.77 in 10.0 mi WSW 19.6 mph 31.1 mph N/A   Clear
9:15 PM 64.0 °F 48.7 °F 57% 29.79 in 10.0 mi WSW 13.8 mph 25.3 mph N/A   Scattered Clouds
9:35 PM 61.9 °F 46.0 °F 56% 29.81 in 10.0 mi WSW 18.4 mph 29.9 mph N/A   Mostly Cloudy
9:55 PM 59.5 °F 44.1 °F 57% 29.82 in 10.0 mi WSW 16.1 mph 27.6 mph N/A   Scattered Clouds
10:15 PM 58.1 °F 44.6 °F 61% 29.83 in 10.0 mi WSW 12.7 mph 19.6 mph N/A   Scattered Clouds
10:35 PM 56.1 °F 43.0 °F 61% 29.84 in 10.0 mi WSW 15.0 mph 23.0 mph N/A   Scattered Clouds
10:55 PM 54.7 °F 40.8 °F 60% 29.85 in 10.0 mi WSW 16.1 mph 24.2 mph N/A   Mostly Cloudy
11:15 PM 53.8 °F 39.6 °F 59% 29.86 in 10.0 mi WSW 15.0 mph 26.5 mph N/A   Overcast
11:35 PM 52.5 °F 39.7 °F 62% 29.87 in 10.0 mi WSW 6.9 mph 16.1 mph N/A   Mostly Cloudy
11:55 PM 51.6 °F 39.7 °F 64% 29.88 in 10.0 mi WSW 12.7 mph 21.9 mph N/A   Scattered Clouds